Regional Weather Roundup
Issued by NWS

Home | Current Version | Previous Version | Graphics & Text | Print | Product List | Glossary On
Versions: 1 2 3 4 5 6 7 8 9 10 11 12 13 14 15 16 17 18 19 20 21 22 23 24 25 26 27 28 29 30 31 32 33 34 35 36 37 38 39 40 41 42 43 44 45 46 47 48 49 50
000
ASUS45 KABQ 170301
RWRNM
WEATHER ROUNDUP FOR NEW MEXICO
NATIONAL WEATHER SERVICE ALBUQUERQUE NM
900 PM MDT TUE SEP 16 2014

NOTE: "FAIR" MEANS FEW OR NO CLOUDS BELOW 12,000 FEET AGL WITH NO
       SIGNIFICANT WEATHER OR OBSTRUCTIONS TO VISION.

      THIS PRODUCT IS RELEASED AS TWO VERSIONS.  ONE VERSION NEAR
      THE TOP OF THE HOUR CONTAINING PRELIMINARY DATA FROM ALBUQUERQUE
      AND OTHER STATIONS.  A FINAL VERSION WITH ADDITIONAL DATA IS
      ISSUED ABOUT 10 MINUTES AFTER THE HOUR.

NMZ501-503-504-510>518-170400-
NORTHWEST PLATEAU/NORTHCENTRAL MOUNTAINS

CITY           SKY/WX    TMP DP  RH WIND       PRES   REMARKS
FARMINGTON     CLEAR     73  45  36 E13       30.14R
LOS ALAMOS     MOCLDY    62  53  73 S12       30.31R
SANTA FE       CLOUDY    63  52  67 SW9       30.27R

$$
NMZ402-403-502-505>509-170400-
WESTCENTRAL MOUNTAINS/SOUTHWEST MOUNTAINS

CITY           SKY/WX    TMP DP  RH WIND       PRES   REMARKS
GALLUP         CLOUDY    67  52  58 S13       30.25R
GRANTS         CLOUDY    61  54  77 S6        30.29R
SILVER CITY    CLOUDY    64  61  88 NE6       30.21R

$$
NMZ407-409-411-412-170400-
SOUTHERN DESERTS

CITY           SKY/WX    TMP DP  RH WIND       PRES   REMARKS
LORDSBURG      FAIR      68  63  83 E6        30.10S
DEMING         LGT RAIN  67  63  87 NE12      30.12R
LAS CRUCES     CLOUDY    70  64  80 N9        30.15R
ALAMOGORDO     CLOUDY    66  64  94 N7        30.15R
T OR C         CLOUDY    63  61  93 N6        30.18R

$$
NMZ519>523-170400-
CENTRAL VALLEYS/CENTRAL HIGHLANDS

CITY           SKY/WX    TMP DP  RH WIND       PRES   REMARKS
ALBUQUERQUE    CLOUDY    64  55  72 SE9       30.24R
DOUBLE EAGLE   CLEAR     61  55  82 S10       30.27R
CLINES CORNERS CLOUDY    57  51  80 W8        30.31R
BELEN          DRIZZLE   62  60  93 SE5       30.23S
SOCORRO        DRIZZLE   64  62  92 W5        30.22R

$$
NMZ524>526-539-540-170400-
SOUTHCENTRAL MOUNTAINS

CITY           SKY/WX    TMP DP  RH WIND       PRES   REMARKS
RUIDOSO        NOT AVBL

$$
NMZ527>531-170400-
NORTHEAST HIGHLANDS/NORTHEAST PLAINS

CITY           SKY/WX    TMP DP  RH WIND       PRES   REMARKS
LAS VEGAS      MOCLDY    59  51  75 S14       30.28R
RATON          MOCLDY    63  52  67 SW7       30.23R
CLAYTON        MOCLDY    65  57  75 S12       30.14S

$$
NMZ532>537-170400-
EASTCENTRAL PLAINS

CITY           SKY/WX    TMP DP  RH WIND       PRES   REMARKS
TUCUMCARI      MOCLDY    69  60  73 SW8       30.14R
CANNON AFB     MOCLDY    66  66 100 W6        30.19R
CLOVIS AIRPORT   N/A     66  61  82 SW10      30.20S

$$
NMZ028-029-538-170400-
SOUTHEAST PLAINS

CITY           SKY/WX    TMP DP  RH WIND       PRES   REMARKS
ROSWELL        CLOUDY    68  66  93 NE3       30.15R FOG
CARLSBAD       CLOUDY    72  72 100 N6        30.12R
HOBBS          CLOUDY    68  68 100 NE7       30.16R


$$


USA.gov is the U.S. government's official web portal to all federal, state and local government web resources and services.